Harrison, AR

1:58 PM CDT on June 22, 2017 (GMT -0500)
Boone County

Weather History for KHRO - May, 2014

Change the Weather History Date:

Monday, May 26, 2014

  Actual Average Record
Temperature  
Mean Temperature 74 °F 68 °F  
Max Temperature 83 °F 79 °F 96 °F (1926)
Min Temperature 64 °F 58 °F 34 °F (1925)
Degree Days  
Heating Degree Days 0 1  
Month to date heating degree days 99 72  
Since 1 July heating degree days 4465 3993  
Cooling Degree Days 9 5  
Month to date cooling degree days 137 78  
Year to date cooling degree days 155 115  
Growing Degree Days 22 (Base 50)    
Moisture  
Dew Point 65 °F    
Average Humidity 79    
Maximum Humidity 100    
Minimum Humidity 58    
Precipitation  
Precipitation 0.01 in 0.13 in 2.45 in (1939)
Month to date precipitation 3.39 3.99  
Year to date precipitation 14.33 17.30  
Snow  
Snow 0.00 in 0.00 in - ()
Month to date snowfall 0.0 0.0  
Since 1 July snowfall 25.8 11.5  
Snow Depth 0.00 in    
Sea Level Pressure  
Sea Level Pressure 30.04 in    
Wind  
Wind Speed 5 mph (South)    
Max Wind Speed 15 mph    
Max Gust Speed 23 mph    
Visibility 9 miles    
Events Rain , Thunderstorm    
T = Trace of Precipitation, MM = Missing Value Source: NWS Daily Summary

Daily Weather History Graph

Daily Weather History Graph

Search for Another Location

Airport or City:

Trip Planner

Search our weather history database for the weather conditions in past years. The results will help you decide how hot, cold, wet, or windy it might be!

Date:

Astronomy

May. 26, 2014 Rise Set
Actual Time 5:59 AM CDT 8:20 PM CDT
Civil Twilight 5:29 AM CDT 8:50 PM CDT
Nautical Twilight 4:53 AM CDT 9:26 PM CDT
Astronomical Twilight 4:13 AM CDT 10:06 PM CDT
Moon 4:37 AM CDT (5/26) 6:27 PM CDT (5/26)
Length of Visible Light 15h 20m
Length of Day
14h 21m
Waning Crescent, 5% of the Moon is Illuminated
May 26
Waning Crescent
May 28
New
Jun 5
First Quarter
Jun 12
Full
Jun 19
Last Quarter

Hourly Weather History & Observations

Time (CDT) Temp. Heat Index Dew Point Humidity Pressure Visibility Wind Dir Wind Speed Gust Speed Precip Events Conditions
12:53 AM 68.0 °F - 64.9 °F 90% 30.02 in 10.0 mi SE 3.5 mph - N/A   Clear
1:53 AM 66.9 °F - 64.9 °F 93% 30.02 in 8.0 mi Calm Calm - N/A   Mostly Cloudy
2:53 AM 66.0 °F - 64.0 °F 93% 30.01 in 10.0 mi Calm Calm - N/A   Clear
3:53 AM 66.9 °F - 64.0 °F 90% 30.02 in 10.0 mi SSE 3.5 mph - N/A   Clear
4:53 AM 64.9 °F - 64.0 °F 97% 30.03 in 7.0 mi Calm Calm - N/A   Clear
5:53 AM 66.0 °F - 64.9 °F 96% 30.05 in 7.0 mi SSE 4.6 mph - N/A   Mostly Cloudy
6:42 AM 66.2 °F - 64.4 °F 94% 30.09 in 2.5 mi SE 4.6 mph - 0.01 in Rain Light Rain
6:51 AM 66.2 °F - 64.4 °F 94% 30.09 in 5.0 mi South 3.5 mph - 0.01 in   Mostly Cloudy
6:53 AM 66.9 °F - 64.9 °F 93% 30.06 in 5.0 mi South 3.5 mph - 0.01 in   Mostly Cloudy
7:53 AM 68.0 °F - 66.0 °F 93% 30.06 in 6.0 mi ESE 4.6 mph - N/A   Scattered Clouds
8:53 AM 69.1 °F - 66.0 °F 90% 30.08 in 8.0 mi SE 5.8 mph - N/A   Overcast
9:53 AM 73.9 °F - 66.9 °F 79% 30.08 in 10.0 mi SSE 5.8 mph - 0.00 in   Scattered Clouds
10:53 AM 77.0 °F - 66.0 °F 69% 30.07 in 10.0 mi South 8.1 mph - N/A   Clear
11:53 AM 80.1 °F 82.1 °F 66.0 °F 62% 30.07 in 10.0 mi South 11.5 mph - N/A   Clear
12:53 PM 81.0 °F 82.5 °F 64.0 °F 56% 30.04 in 10.0 mi South 10.4 mph 18.4 mph N/A   Partly Cloudy
1:53 PM 81.0 °F 82.7 °F 64.9 °F 58% 30.02 in 10.0 mi South 8.1 mph - N/A   Overcast
2:53 PM 79.0 °F - 64.9 °F 62% 30.01 in 10.0 mi South 6.9 mph - N/A   Mostly Cloudy
3:53 PM 81.0 °F 82.7 °F 64.9 °F 58% 30.00 in 10.0 mi South 6.9 mph - N/A   Partly Cloudy
4:51 PM 80.6 °F 82.3 °F 64.4 °F 58% 30.03 in 10.0 mi South 11.5 mph 17.3 mph N/A Thunderstorm Mostly Cloudy
4:53 PM 80.1 °F 81.5 °F 63.0 °F 56% 29.99 in 10.0 mi South 9.2 mph 17.3 mph N/A Thunderstorm Mostly Cloudy
5:06 PM 78.8 °F - 64.4 °F 61% 30.04 in 10.0 mi South 8.1 mph - N/A   Mostly Cloudy
5:53 PM 77.0 °F - 63.0 °F 62% 29.99 in 10.0 mi SSW 5.8 mph - N/A   Clear
6:53 PM 75.9 °F - 63.0 °F 64% 30.01 in 10.0 mi SSW 5.8 mph - N/A   Clear
7:53 PM 75.0 °F - 62.1 °F 64% 30.02 in 10.0 mi SSW 3.5 mph - N/A   Clear
8:53 PM 70.0 °F - 66.9 °F 90% 30.02 in 10.0 mi North 3.5 mph - N/A   Clear
9:53 PM 68.0 °F - 66.2 °F 94% 30.08 in 8.0 mi NNW 4.6 mph - N/A   Clear
10:53 PM 66.9 °F - 64.9 °F 93% 30.05 in 9.0 mi North 3.5 mph - N/A   Clear
11:53 PM 64.9 °F - 64.0 °F 97% 30.04 in 6.0 mi Calm Calm - N/A   Clear